This is the latest recevied weather packets stored in our database for station/object SQ7ACP-3. If no packets are shown the sender has not sent any weather packets the latest 10 day(s).
| Time | Temp. | Humidity | Pressure | Rain* | Wind** | Luminosity | Snow |
|---|---|---|---|---|---|---|---|
| 1777830314 | 22.78° C | 32% | 1013.2 hPa | 0 mm | - | - | - |
| 1777829702 | 23.33° C | 30% | 1013.2 hPa | 0 mm | - | - | - |
| 1777829102 | 23.33° C | 30% | 1013.2 hPa | 0 mm | - | - | - |
| 1777828489 | 23.89° C | 29% | 1013.2 hPa | 0 mm | - | - | - |
| 1777827889 | 23.89° C | 28% | 1013.2 hPa | 0 mm | - | - | - |
| 1777827279 | 24.44° C | 28% | 1013.2 hPa | 0 mm | - | - | - |
| 1777826676 | 24.44° C | 27% | 1013.2 hPa | 0 mm | - | - | - |
| 1777826064 | 25° C | 26% | 1013.3 hPa | 0 mm | - | - | - |
| 1777825465 | 25° C | 26% | 1013.3 hPa | 0 mm | - | - | - |
| 1777824863 | 25° C | 26% | 1013.3 hPa | 0 mm | - | - | - |
| 1777824253 | 25° C | 26% | 1013.3 hPa | 0 mm | - | - | - |
| 1777823651 | 25° C | 26% | 1013.3 hPa | 0 mm | - | - | - |
| 1777823038 | 25° C | 26% | 1013.3 hPa | 0 mm | - | - | - |
| 1777822426 | 25.56° C | 25% | 1013.4 hPa | 0 mm | - | - | - |
| 1777821822 | 25.56° C | 25% | 1013.5 hPa | 0 mm | - | - | - |
| 1777821214 | 25.56° C | 25% | 1013.5 hPa | 0 mm | - | - | - |
| 1777820613 | 25.56° C | 24% | 1013.6 hPa | 0 mm | - | - | - |
| 1777820013 | 25.56° C | 24% | 1013.7 hPa | 0 mm | - | - | - |
| 1777819401 | 25.56° C | 25% | 1014 hPa | 0 mm | - | - | - |
| 1777818791 | 25.56° C | 24% | 1014.1 hPa | 0 mm | - | - | - |
| 1777817547 | 26.11° C | 24% | 1014.3 hPa | 0 mm | - | - | - |
| 1777816326 | 25.56° C | 24% | 1014.4 hPa | 0 mm | - | - | - |
| 1777815713 | 26.11° C | 24% | 1014.6 hPa | 0 mm | - | - | - |
| 1777815101 | 25.56° C | 25% | 1014.7 hPa | 0 mm | - | - | - |
| 1777814488 | 26.11° C | 24% | 1014.8 hPa | 0 mm | - | - | - |
* Rain latest hour (hover to see other rain measurements)
** Current wind speed in m/s (hover to see current wind gust speed)